User: anonymous   Login
Location: Ostrava
(49.8330°N, 18.2830°E)
Time: 09:17:15
(UTC+02:00)
Language:

Iridium 7 - Orbit

View from above orbital plane
View from above orbital plane
View from above satellite
View from above satellite

Ground track
Ground track

The orbit data is extracted from the following two-line orbital elements,

1 24793U 97020B   16212.45786222  .00000115  00000-0  34048-4 0  9991
2 24793  86.3960  93.4798 0002237  83.7331 276.4119 14.34214595  7081
Epoch (UTC): 30 July 2016 10:59:19
Eccentricity: 0.0002237
inclination: 86.3960°
perigee height: 776 km
apogee height: 779 km
right ascension of ascending node: 93.4798°
argument of perigee: 83.7331°
revolutions per day: 14.34214595
mean anomaly at epoch: 276.4119°
orbit number at epoch: 708

The dashed part of the orbit path shows where the satellite is in the earth's shadow,  

DLR